QPF
0.02 0.02 0.02 0.03 0.04 0.05 0.05 0.05 0.05 0.04 0.04 0.04 0.03 0.02 0.02 0.02 0.02 0.03 0.03 0.03 0.03 0.03 0.02 0.02 0.02 0.02 0.02 0.02 0.03 0.03 0.03 0.03 0.02 0.02 0.01 0.01 0.01 0.01 0.01 0.01 0.01 0.01 0.00
0.01 0.01 0.02 0.03 0.04 0.05 0.05 0.04 0.03 0.03 0.03 0.02 0.01 0.01 0.01 0.01 0.01 0.01 0.01 0.01 0.01 0.01 0.01 0.01 0.01 0.02 0.02 0.03 0.03 0.03 0.03 0.03 0.03 0.02 0.01 0.01 0.01 0.01 0.01 0.01 0.00 0.00 0.00
0.01 0.01 0.01 0.01 0.02 0.02 0.02 0.02 0.02 0.02 0.02 0.01 0.01 0.01 0.01 0.00 0.00 0.00 0.01 0.01 0.01 0.01 0.01 0.01 0.01 0.02 0.02 0.02 0.02 0.03 0.03 0.03 0.04 0.03 0.02 0.02 0.01 0.01 0.01 0.01 0.01 0.00 0.00
0.01 0.01 0.01 0.01 0.02 0.02 0.02 0.02 0.02 0.03 0.02 0.01 0.01 0.01 0.01 0.01 0.01 0.00 0.00 0.01 0.01 0.01 0.01 0.01 0.01 0.01 0.01 0.02 0.02 0.02 0.03 0.03 0.04 0.04 0.03 0.02 0.02 0.01 0.01 0.01 0.01 0.01 0.01
0.01 0.01 0.01 0.01 0.02 0.02 0.03 0.03 0.03 0.03 0.03 0.03 0.02 0.02 0.01 0.01 0.01 0.01 0.01 0.01 0.01 0.00 0.00 0.00 0.00 0.00 0.00 0.01 0.01 0.02 0.02 0.03 0.03 0.03 0.03 0.03 0.02 0.01 0.01 0.01 0.01 0.01 0.01
0.01 0.01 0.02 0.02 0.03 0.03 0.03 0.03 0.02 0.02 0.02 0.02 0.01 0.01 0.01 0.01 0.01 0.01 0.01 0.01 0.00 0.00 0.00 0.00 0.00 0.00 0.00 0.01 0.01 0.02 0.02 0.02 0.02 0.02 0.02 0.02 0.01 0.01 0.02 0.02 0.02 0.02 0.01
0.01 0.01 0.02 0.02 0.02 0.02 0.03 0.03 0.02 0.02 0.02 0.01 0.01 0.01 0.01 0.01 0.01 0.01 0.01 0.00 0.00 0.00 0.00 0.00 0.00 0.00 0.00 0.00 0.01 0.01 0.01 0.02 0.02 0.01 0.01 0.01 0.01 0.02 0.02 0.02 0.02 0.01 0.01
0.00 0.01 0.02 0.02 0.01 0.01 0.01 0.02 0.02 0.02 0.02 0.02 0.02 0.01 0.01 0.01 0.01 0.01 0.00 0.00 0.00 0.00 0.00 0.00 0.00 0.00 0.00 0.00 0.00 0.00 0.01 0.01 0.01 0.01 0.01 0.01 0.01 0.01 0.01 0.01 0.01 0.01 0.01
0.00 0.00 0.01 0.01 0.01 0.01 0.01 0.01 0.01 0.01 0.01 0.01 0.01 0.01 0.01 0.01 0.01 0.00 0.00 0.00 0.00 0.00 0.00 0.00 0.00 0.00 0.01 0.01 0.00 0.00 0.00 0.00 0.00 0.00 0.00 0.00 0.00 0.00 0.00 0.00 0.00 0.00 0.00
0.00 0.00 0.00 0.00 0.00 0.00 0.00 0.00 0.00 0.00 0.00 0.00 0.00 0.00 0.00 0.00 0.00 0.00 0.00 0.00 0.00 0.00 0.00 0.00 0.00 0.00 0.01 0.00 0.00 0.00 0.00 0.00 0.00 0.00 0.00 0.00 0.00 0.00 0.00 0.00 0.00 0.00 0.00
0.00 0.01 0.01 0.00 0.00 0.00 0.00 0.00 0.00 0.00 0.00 0.00 0.00 0.00 0.00 0.00 0.00 0.00 0.00 0.00 0.00 0.00 0.00 0.00 0.00 0.01 0.01 0.00 0.00 0.00 0.00 0.00 0.00 0.00 0.00 0.00 0.00 0.00 0.00 0.00 0.00 0.00 0.00
0.00 0.01 0.01 0.00 0.00 0.00 0.00 0.00 0.00 0.00 0.00 0.00 0.00 0.00 0.00 0.00 0.00 0.00 0.00 0.00 0.00 0.00 0.00 0.00 0.00 0.01 0.00 0.00 0.00 0.00 0.00 0.00 0.00 0.00 0.00 0.00 0.00 0.00 0.00 0.00 0.00 0.00 0.00
0.01 0.01 0.01 0.01 0.01 0.01 0.01 0.01 0.00 0.00 0.00 0.00 0.00 0.00 0.00 0.00 0.00 0.00 0.00 0.00 0.00 0.00 0.00 0.00 0.00 0.00 0.00 0.00 0.00 0.00 0.00 0.00 0.00 0.00 0.00 0.00 0.00 0.00 0.00 0.00 0.00 0.00 0.00
0.01 0.02 0.02 0.02 0.02 0.02 0.02 0.01 0.01 0.00 0.00 0.00 0.00 0.00 0.00 0.00 0.00 0.00 0.00 0.00 0.00 0.00 0.00 0.00 0.00 0.00 0.00 0.00 0.00 0.00 0.00 0.00 0.00 0.00 0.00 0.00 0.00 0.00 0.00 0.00 0.00 0.00 0.00
0.02 0.02 0.03 0.03 0.03 0.03 0.02 0.02 0.01 0.01 0.01 0.00 0.00 0.00 0.01 0.00 0.01 0.01 0.01 0.00 0.00 0.01 0.01 0.00 0.00 0.00 0.00 0.00 0.00 0.00 0.00 0.00 0.00 0.00 0.00 0.00 0.00 0.00 0.00 0.00 0.00 0.00 0.00
0.03 0.03 0.03 0.03 0.02 0.02 0.02 0.01 0.01 0.01 0.01 0.01 0.01 0.01 0.00 0.01 0.01 0.01 0.01 0.01 0.01 0.01 0.01 0.01 0.01 0.01 0.01 0.00 0.01 0.00 0.00 0.00 0.00 0.00 0.00 0.00 0.00 0.00 0.00 0.00 0.00 0.00 0.00
0.03 0.02 0.02 0.02 0.01 0.01 0.01 0.01 0.01 0.01 0.01 0.01 0.01 0.01 0.01 0.01 0.01 0.01 0.01 0.01 0.01 0.02 0.01 0.01 0.01 0.01 0.01 0.00 0.00 0.00 0.00 0.00 0.00 0.00 0.00 0.00 0.00 0.00 0.00 0.00 0.00 0.00 0.00
0.02 0.01 0.01 0.01 0.01 0.01 0.01 0.01 0.01 0.01 0.01 0.01 0.01 0.02 0.02 0.01 0.01 0.01 0.01 0.02 0.01 0.01 0.01 0.01 0.01 0.01 0.01 0.00 0.00 0.00 0.00 0.00 0.00 0.00 0.00 0.00 0.00 0.00 0.00 0.00 0.00 0.00 0.00
0.01 0.01 0.01 0.01 0.01 0.01 0.01 0.01 0.01 0.01 0.01 0.01 0.01 0.02 0.02 0.02 0.02 0.02 0.02 0.01 0.01 0.01 0.01 0.01 0.01 0.01 0.01 0.01 0.01 0.01 0.01 0.01 0.01 0.01 0.01 0.01 0.01 0.01 0.01 0.01 0.00 0.00 0.00
0.01 0.01 0.00 0.00 0.00 0.00 0.01 0.01 0.01 0.01 0.01 0.01 0.01 0.01 0.02 0.02 0.02 0.01 0.01 0.01 0.01 0.01 0.01 0.01 0.01 0.01 0.01 0.01 0.01 0.01 0.01 0.01 0.01 0.01 0.01 0.01 0.01 0.01 0.01 0.01 0.01 0.01 0.00
0.00 0.00 0.00 0.00 0.00 0.00 0.00 0.01 0.01 0.01 0.01 0.01 0.01 0.01 0.02 0.02 0.01 0.01 0.01 0.01 0.01 0.01 0.01 0.02 0.02 0.02 0.02 0.02 0.02 0.02 0.02 0.01 0.01 0.01 0.01 0.01 0.01 0.01 0.01 0.01 0.01 0.01 0.01
0.00 0.00 0.00 0.00 0.00 0.00 0.01 0.01 0.01 0.01 0.01 0.01 0.01 0.01 0.02 0.02 0.01 0.01 0.01 0.01 0.01 0.01 0.01 0.02 0.02 0.02 0.02 0.02 0.03 0.03 0.02 0.02 0.01 0.02 0.02 0.02 0.01 0.01 0.01 0.01 0.01 0.01 0.01
0.00 0.00 0.00 0.00 0.00 0.01 0.01 0.01 0.01 0.01 0.01 0.01 0.01 0.01 0.01 0.01 0.01 0.01 0.01 0.01 0.01 0.01 0.01 0.02 0.02 0.02 0.02 0.02 0.02 0.03 0.03 0.02 0.02 0.02 0.03 0.02 0.02 0.02 0.02 0.02 0.01 0.01 0.01
0.01 0.01 0.01 0.01 0.01 0.01 0.01 0.01 0.01 0.01 0.01 0.01 0.01 0.01 0.01 0.01 0.01 0.01 0.01 0.01 0.01 0.02 0.02 0.02 0.02 0.02 0.02 0.02 0.03 0.03 0.03 0.02 0.03 0.04 0.04 0.04 0.03 0.02 0.02 0.02 0.02 0.01 0.01
0.01 0.01 0.01 0.01 0.01 0.01 0.01 0.01 0.01 0.01 0.01 0.01 0.01 0.01 0.01 0.01 0.01 0.01 0.01 0.01 0.01 0.01 0.01 0.02 0.02 0.02 0.02 0.02 0.03 0.03 0.03 0.03 0.04 0.04 0.04 0.05 0.04 0.03 0.03 0.02 0.02 0.02 0.02
0.01 0.01 0.01 0.01 0.01 0.01 0.01 0.01 0.01 0.01 0.01 0.01 0.01 0.01 0.01 0.01 0.01 0.01 0.01 0.01 0.01 0.01 0.01 0.01 0.01 0.02 0.02 0.02 0.03 0.03 0.03 0.03 0.03 0.04 0.04 0.04 0.04 0.04 0.03 0.03 0.03 0.03 0.03
MSLP
1014.37 1014.75 1015.16 1015.58 1016.01 1016.46 1016.93 1017.40 1017.87 1018.33 1018.75 1019.11 1019.40 1019.62 1019.77 1019.87 1019.93 1019.97 1020.02 1020.06 1020.12 1020.16 1020.19 1020.18 1020.12 1020.01 1019.86 1019.69 1019.53 1019.41 1019.36 1019.38 1019.50 1019.70 1019.96 1020.27 1020.58 1020.89 1021.17 1021.41 1021.61 1021.77 1021.89
1014.91 1015.27 1015.65 1016.04 1016.45 1016.89 1017.33 1017.78 1018.23 1018.67 1019.06 1019.41 1019.69 1019.89 1020.03 1020.12 1020.17 1020.20 1020.23 1020.26 1020.29 1020.32 1020.33 1020.30 1020.23 1020.12 1019.96 1019.78 1019.61 1019.47 1019.39 1019.39 1019.47 1019.64 1019.88 1020.17 1020.50 1020.83 1021.15 1021.45 1021.71 1021.93 1022.12
1015.46 1015.81 1016.17 1016.55 1016.95 1017.36 1017.78 1018.20 1018.62 1019.02 1019.38 1019.70 1019.95 1020.13 1020.26 1020.33 1020.37 1020.38 1020.39 1020.41 1020.43 1020.44 1020.44 1020.41 1020.34 1020.23 1020.09 1019.91 1019.74 1019.59 1019.50 1019.47 1019.52 1019.66 1019.87 1020.15 1020.46 1020.80 1021.14 1021.47 1021.78 1022.05 1022.29
1015.96 1016.31 1016.68 1017.05 1017.44 1017.83 1018.22 1018.62 1019.00 1019.36 1019.69 1019.97 1020.18 1020.34 1020.45 1020.50 1020.52 1020.52 1020.52 1020.52 1020.53 1020.54 1020.53 1020.51 1020.46 1020.36 1020.23 1020.08 1019.92 1019.77 1019.67 1019.62 1019.65 1019.76 1019.94 1020.19 1020.48 1020.81 1021.16 1021.50 1021.83 1022.13 1022.40
1016.36 1016.73 1017.11 1017.49 1017.88 1018.26 1018.63 1019.00 1019.35 1019.67 1019.96 1020.20 1020.39 1020.52 1020.60 1020.63 1020.64 1020.63 1020.61 1020.61 1020.61 1020.61 1020.62 1020.61 1020.57 1020.50 1020.40 1020.27 1020.13 1019.99 1019.89 1019.84 1019.84 1019.92 1020.07 1020.29 1020.56 1020.87 1021.20 1021.54 1021.87 1022.19 1022.48
1016.63 1017.04 1017.44 1017.84 1018.22 1018.60 1018.96 1019.30 1019.62 1019.92 1020.17 1020.38 1020.54 1020.65 1020.71 1020.73 1020.72 1020.70 1020.68 1020.66 1020.66 1020.67 1020.68 1020.68 1020.67 1020.62 1020.55 1020.45 1020.34 1020.22 1020.13 1020.07 1020.06 1020.12 1020.24 1020.43 1020.67 1020.95 1021.27 1021.60 1021.93 1022.25 1022.54
1016.78 1017.21 1017.63 1018.05 1018.45 1018.82 1019.18 1019.51 1019.81 1020.08 1020.31 1020.50 1020.64 1020.73 1020.78 1020.78 1020.77 1020.73 1020.70 1020.69 1020.68 1020.69 1020.71 1020.73 1020.73 1020.71 1020.67 1020.60 1020.52 1020.43 1020.35 1020.29 1020.28 1020.33 1020.43 1020.59 1020.81 1021.07 1021.36 1021.68 1022.00 1022.31 1022.61
1016.80 1017.25 1017.69 1018.12 1018.53 1018.91 1019.26 1019.59 1019.88 1020.14 1020.36 1020.54 1020.66 1020.74 1020.77 1020.77 1020.75 1020.71 1020.68 1020.66 1020.65 1020.67 1020.69 1020.72 1020.74 1020.75 1020.74 1020.70 1020.64 1020.58 1020.52 1020.48 1020.47 1020.51 1020.60 1020.75 1020.95 1021.19 1021.47 1021.78 1022.09 1022.40 1022.69
1016.73 1017.18 1017.63 1018.06 1018.48 1018.86 1019.22 1019.55 1019.84 1020.10 1020.31 1020.48 1020.60 1020.67 1020.69 1020.69 1020.66 1020.62 1020.58 1020.56 1020.56 1020.58 1020.61 1020.65 1020.69 1020.72 1020.74 1020.73 1020.70 1020.67 1020.63 1020.61 1020.61 1020.66 1020.75 1020.89 1021.08 1021.32 1021.59 1021.89 1022.20 1022.51 1022.80
1016.61 1017.05 1017.48 1017.91 1018.32 1018.70 1019.07 1019.39 1019.69 1019.94 1020.16 1020.32 1020.44 1020.50 1020.53 1020.52 1020.49 1020.45 1020.41 1020.39 1020.40 1020.42 1020.46 1020.52 1020.58 1020.64 1020.68 1020.70 1020.71 1020.70 1020.69 1020.70 1020.72 1020.77 1020.87 1021.01 1021.21 1021.44 1021.70 1022.00 1022.30 1022.61 1022.91
1016.48 1016.88 1017.29 1017.69 1018.09 1018.47 1018.82 1019.15 1019.44 1019.70 1019.91 1020.07 1020.18 1020.25 1020.27 1020.26 1020.23 1020.20 1020.17 1020.15 1020.17 1020.20 1020.26 1020.34 1020.42 1020.50 1020.57 1020.63 1020.67 1020.69 1020.71 1020.74 1020.78 1020.85 1020.96 1021.11 1021.30 1021.53 1021.79 1022.08 1022.39 1022.69 1022.99
1016.37 1016.72 1017.08 1017.45 1017.81 1018.17 1018.52 1018.84 1019.13 1019.37 1019.58 1019.74 1019.84 1019.91 1019.93 1019.92 1019.90 1019.87 1019.85 1019.85 1019.88 1019.94 1020.02 1020.12 1020.23 1020.34 1020.44 1020.53 1020.59 1020.65 1020.70 1020.75 1020.81 1020.90 1021.01 1021.17 1021.36 1021.58 1021.84 1022.12 1022.41 1022.72 1023.01
1016.30 1016.58 1016.88 1017.20 1017.53 1017.86 1018.18 1018.48 1018.75 1018.99 1019.18 1019.33 1019.43 1019.49 1019.51 1019.50 1019.49 1019.47 1019.47 1019.49 1019.55 1019.63 1019.74 1019.86 1020.00 1020.14 1020.27 1020.38 1020.48 1020.57 1020.64 1020.71 1020.79 1020.89 1021.01 1021.16 1021.35 1021.57 1021.81 1022.08 1022.36 1022.65 1022.93
1016.29 1016.49 1016.72 1016.97 1017.25 1017.54 1017.82 1018.09 1018.34 1018.55 1018.73 1018.86 1018.95 1019.00 1019.02 1019.02 1019.01 1019.01 1019.03 1019.08 1019.15 1019.26 1019.40 1019.56 1019.72 1019.89 1020.05 1020.19 1020.31 1020.41 1020.51 1020.60 1020.69 1020.79 1020.92 1021.07 1021.25 1021.45 1021.68 1021.93 1022.19 1022.46 1022.72
1016.31 1016.43 1016.59 1016.78 1017.00 1017.23 1017.46 1017.69 1017.90 1018.08 1018.22 1018.33 1018.40 1018.44 1018.46 1018.46 1018.46 1018.48 1018.51 1018.58 1018.68 1018.82 1018.98 1019.16 1019.36 1019.54 1019.73 1019.89 1020.03 1020.15 1020.26 1020.36 1020.46 1020.57 1020.70 1020.85 1021.02 1021.21 1021.42 1021.65 1021.89 1022.13 1022.37
1016.36 1016.41 1016.50 1016.63 1016.77 1016.94 1017.12 1017.29 1017.45 1017.58 1017.69 1017.76 1017.81 1017.83 1017.83 1017.83 1017.83 1017.86 1017.91 1017.99 1018.11 1018.26 1018.44 1018.64 1018.85 1019.05 1019.25 1019.42 1019.57 1019.71 1019.83 1019.94 1020.05 1020.17 1020.30 1020.45 1020.61 1020.80 1021.01 1021.22 1021.44 1021.66 1021.88
1016.43 1016.43 1016.45 1016.51 1016.59 1016.69 1016.80 1016.91 1017.01 1017.08 1017.14 1017.17 1017.18 1017.17 1017.16 1017.14 1017.14 1017.16 1017.20 1017.29 1017.41 1017.57 1017.75 1017.95 1018.16 1018.37 1018.56 1018.74 1018.90 1019.04 1019.17 1019.29 1019.41 1019.54 1019.68 1019.84 1020.01 1020.20 1020.41 1020.62 1020.83 1021.04 1021.24
1016.53 1016.48 1016.45 1016.44 1016.46 1016.49 1016.53 1016.57 1016.60 1016.61 1016.61 1016.59 1016.55 1016.51 1016.46 1016.41 1016.39 1016.39 1016.42 1016.49 1016.60 1016.74 1016.90 1017.09 1017.28 1017.48 1017.66 1017.83 1017.99 1018.13 1018.27 1018.39 1018.53 1018.67 1018.83 1019.00 1019.19 1019.40 1019.61 1019.83 1020.05 1020.27 1020.46
1016.65 1016.56 1016.49 1016.43 1016.39 1016.36 1016.33 1016.29 1016.25 1016.21 1016.14 1016.06 1015.97 1015.88 1015.79 1015.70 1015.64 1015.61 1015.60 1015.64 1015.71 1015.81 1015.94 1016.09 1016.25 1016.41 1016.57 1016.73 1016.87 1017.00 1017.14 1017.27 1017.41 1017.57 1017.75 1017.95 1018.16 1018.39 1018.63 1018.87 1019.11 1019.34 1019.55
1016.81 1016.70 1016.59 1016.49 1016.40 1016.31 1016.22 1016.12 1016.02 1015.90 1015.78 1015.64 1015.49 1015.35 1015.20 1015.07 1014.96 1014.88 1014.82 1014.80 1014.82 1014.86 1014.93 1015.03 1015.14 1015.25 1015.37 1015.49 1015.61 1015.72 1015.84 1015.98 1016.13 1016.29 1016.49 1016.70 1016.94 1017.20 1017.47 1017.74 1018.00 1018.25 1018.49
1017.00 1016.88 1016.76 1016.63 1016.50 1016.37 1016.23 1016.08 1015.92 1015.74 1015.56 1015.37 1015.17 1014.97 1014.78 1014.59 1014.43 1014.28 1014.17 1014.08 1014.03 1014.00 1014.00 1014.02 1014.06 1014.11 1014.17 1014.23 1014.31 1014.39 1014.49 1014.60 1014.74 1014.91 1015.10 1015.33 1015.59 1015.86 1016.15 1016.45 1016.74 1017.02 1017.28
1017.23 1017.11 1016.98 1016.84 1016.69 1016.53 1016.35 1016.16 1015.96 1015.74 1015.51 1015.28 1015.04 1014.79 1014.55 1014.32 1014.10 1013.90 1013.72 1013.57 1013.44 1013.33 1013.24 1013.18 1013.13 1013.10 1013.08 1013.08 1013.09 1013.12 1013.17 1013.25 1013.36 1013.50 1013.68 1013.90 1014.15 1014.42 1014.72 1015.03 1015.34 1015.65 1015.93
1017.48 1017.37 1017.24 1017.10 1016.94 1016.77 1016.57 1016.36 1016.13 1015.89 1015.64 1015.37 1015.10 1014.83 1014.56 1014.29 1014.03 1013.78 1013.54 1013.32 1013.11 1012.93 1012.75 1012.59 1012.45 1012.33 1012.22 1012.13 1012.06 1012.01 1011.99 1012.01 1012.06 1012.15 1012.29 1012.46 1012.69 1012.94 1013.23 1013.53 1013.84 1014.16 1014.47
1017.72 1017.63 1017.52 1017.38 1017.23 1017.05 1016.85 1016.64 1016.40 1016.15 1015.89 1015.61 1015.33 1015.05 1014.77 1014.48 1014.19 1013.90 1013.61 1013.33 1013.06 1012.79 1012.53 1012.28 1012.05 1011.82 1011.61 1011.42 1011.25 1011.11 1011.00 1010.93 1010.90 1010.91 1010.98 1011.09 1011.26 1011.47 1011.71 1011.99 1012.29 1012.60 1012.92
1017.94 1017.86 1017.76 1017.64 1017.50 1017.33 1017.14 1016.92 1016.69 1016.45 1016.19 1015.92 1015.65 1015.37 1015.09 1014.79 1014.49 1014.18 1013.86 1013.53 1013.20 1012.86 1012.53 1012.19 1011.86 1011.54 1011.22 1010.93 1010.66 1010.41 1010.19 1010.02 1009.89 1009.81 1009.78 1009.81 1009.90 1010.04 1010.23 1010.47 1010.74 1011.04 1011.35
1018.09 1018.03 1017.94 1017.84 1017.71 1017.55 1017.37 1017.16 1016.94 1016.71 1016.47 1016.22 1015.96 1015.69 1015.41 1015.12 1014.81 1014.49 1014.15 1013.79 1013.41 1013.01 1012.61 1012.20 1011.78 1011.37 1010.96 1010.56 1010.19 1009.83 1009.51 1009.23 1009.00 1008.81 1008.69 1008.63 1008.63 1008.70 1008.82 1009.01 1009.24 1009.51 1009.82
Thickness
5595 5597 5597 5598 5598 5598 5597 5597 5596 5594 5592 5591 5590 5589 5587 5585 5583 5582 5580 5579 5576 5573 5571 5568 5566 5563 5561 5558 5556 5553 5550 5548 5548 5542 5535 5530 5527 5523 5520 5518 5515 5513 5511
5583 5584 5584 5584 5585 5584 5584 5583 5582 5581 5579 5578 5577 5576 5574 5572 5570 5569 5568 5566 5563 5561 5558 5556 5553 5551 5548 5546 5543 5541 5538 5536 5534 5531 5524 5519 5515 5512 5509 5506 5503 5502 5500
5570 5571 5571 5571 5571 5571 5570 5570 5569 5568 5566 5566 5565 5563 5560 5559 5557 5556 5555 5553 5550 5548 5546 5543 5541 5538 5536 5533 5531 5528 5526 5524 5522 5519 5513 5507 5503 5500 5497 5494 5492 5490 5489
5557 5558 5558 5559 5559 5559 5557 5556 5556 5555 5553 5552 5551 5549 5547 5546 5545 5544 5542 5540 5537 5535 5532 5531 5528 5526 5523 5520 5518 5516 5514 5511 5509 5505 5501 5495 5491 5488 5485 5482 5480 5478 5477
5546 5547 5547 5547 5547 5546 5545 5544 5543 5542 5541 5540 5538 5536 5535 5534 5533 5532 5530 5527 5524 5521 5519 5517 5515 5513 5511 5509 5506 5503 5501 5499 5496 5493 5488 5484 5480 5477 5475 5472 5469 5467 5466
5536 5536 5536 5536 5535 5535 5534 5533 5531 5530 5529 5528 5526 5524 5523 5523 5522 5521 5518 5515 5512 5509 5506 5504 5502 5500 5499 5497 5495 5493 5490 5487 5484 5481 5477 5474 5471 5469 5466 5463 5459 5456 5455
5526 5526 5526 5526 5525 5524 5523 5521 5519 5518 5517 5515 5514 5513 5511 5510 5510 5508 5506 5503 5500 5497 5494 5491 5490 5488 5486 5484 5482 5480 5478 5476 5474 5471 5467 5465 5462 5460 5457 5453 5450 5447 5446
5515 5516 5516 5516 5515 5513 5511 5510 5508 5506 5505 5504 5503 5502 5500 5498 5497 5496 5494 5491 5487 5484 5482 5480 5478 5475 5474 5471 5469 5467 5465 5463 5462 5461 5458 5456 5454 5452 5449 5446 5442 5438 5435
5505 5506 5507 5506 5505 5503 5501 5499 5498 5496 5495 5493 5492 5490 5488 5487 5486 5484 5482 5478 5474 5472 5470 5469 5467 5465 5464 5462 5459 5456 5453 5452 5451 5450 5448 5446 5444 5442 5440 5435 5431 5428 5425
5496 5497 5497 5497 5496 5494 5492 5490 5488 5486 5484 5482 5481 5479 5478 5476 5475 5473 5471 5467 5463 5461 5459 5458 5457 5455 5454 5452 5448 5446 5443 5441 5440 5438 5436 5435 5433 5431 5429 5426 5422 5417 5414
5486 5487 5487 5486 5485 5484 5482 5480 5478 5476 5473 5471 5470 5468 5467 5466 5465 5463 5461 5457 5454 5451 5449 5447 5446 5446 5445 5443 5440 5437 5435 5433 5430 5428 5425 5423 5421 5419 5417 5415 5413 5409 5405
5475 5476 5476 5475 5475 5474 5472 5469 5467 5465 5463 5461 5459 5458 5456 5456 5455 5454 5453 5450 5447 5443 5441 5439 5438 5437 5436 5434 5432 5430 5428 5425 5421 5418 5415 5413 5411 5409 5407 5405 5403 5401 5399
5464 5465 5465 5465 5464 5464 5462 5460 5457 5455 5454 5452 5450 5449 5447 5447 5446 5446 5445 5443 5440 5436 5434 5432 5430 5429 5427 5425 5424 5422 5419 5415 5412 5409 5407 5405 5403 5400 5398 5395 5393 5391 5389
5453 5454 5454 5455 5454 5453 5452 5451 5449 5448 5446 5444 5442 5441 5440 5438 5437 5436 5435 5434 5432 5429 5426 5424 5423 5421 5418 5416 5415 5413 5410 5407 5404 5402 5400 5397 5394 5391 5388 5386 5383 5381 5378
5443 5444 5444 5445 5444 5444 5443 5443 5442 5442 5441 5439 5437 5435 5433 5432 5432 5431 5427 5425 5423 5421 5418 5415 5413 5410 5409 5407 5405 5403 5401 5399 5397 5395 5392 5389 5386 5384 5381 5377 5374 5371 5368
5433 5434 5434 5435 5435 5435 5434 5434 5435 5434 5434 5433 5432 5430 5429 5428 5427 5425 5423 5421 5418 5416 5412 5408 5406 5404 5402 5401 5399 5397 5395 5393 5390 5388 5385 5382 5379 5376 5373 5370 5366 5363 5361
5424 5425 5425 5426 5426 5426 5426 5426 5425 5425 5426 5426 5425 5424 5423 5422 5421 5419 5417 5415 5413 5410 5406 5403 5401 5399 5397 5395 5392 5391 5389 5387 5384 5381 5378 5375 5372 5369 5365 5362 5359 5356 5354
5414 5416 5416 5417 5417 5417 5417 5417 5416 5416 5416 5417 5417 5417 5417 5416 5414 5413 5411 5408 5406 5404 5401 5399 5396 5394 5392 5389 5387 5385 5383 5380 5377 5374 5371 5369 5365 5362 5358 5355 5352 5349 5347
5405 5406 5407 5407 5408 5408 5408 5408 5408 5408 5409 5409 5408 5408 5409 5409 5408 5406 5405 5401 5399 5398 5396 5394 5392 5390 5387 5385 5383 5380 5377 5375 5372 5369 5366 5363 5359 5355 5352 5349 5346 5343 5340
5396 5397 5398 5399 5399 5399 5399 5400 5400 5400 5401 5401 5401 5401 5400 5399 5399 5398 5397 5396 5394 5392 5391 5389 5387 5385 5383 5380 5377 5375 5372 5369 5367 5363 5361 5357 5354 5350 5347 5343 5340 5336 5333
5386 5388 5389 5390 5390 5391 5391 5392 5392 5393 5394 5394 5394 5394 5394 5392 5392 5391 5390 5389 5388 5387 5385 5383 5382 5380 5378 5375 5373 5370 5367 5365 5362 5359 5355 5352 5348 5344 5341 5337 5333 5329 5326
5377 5379 5380 5381 5382 5383 5384 5384 5385 5386 5386 5387 5387 5386 5387 5386 5385 5384 5383 5382 5381 5380 5379 5377 5376 5374 5372 5370 5368 5365 5362 5360 5357 5353 5350 5346 5342 5338 5334 5330 5326 5322 5318
5368 5369 5371 5372 5373 5375 5376 5376 5377 5378 5378 5378 5378 5378 5378 5378 5378 5377 5376 5376 5374 5373 5372 5370 5369 5367 5366 5364 5362 5359 5357 5355 5352 5348 5344 5340 5336 5332 5328 5324 5319 5315 5311
5359 5361 5362 5363 5365 5366 5368 5368 5369 5370 5370 5370 5370 5370 5370 5370 5370 5370 5369 5368 5367 5366 5365 5363 5362 5361 5359 5357 5355 5353 5350 5348 5344 5341 5337 5334 5330 5325 5321 5317 5313 5309 5305
5351 5352 5354 5355 5356 5358 5359 5360 5360 5361 5362 5362 5363 5363 5363 5362 5362 5362 5361 5360 5359 5358 5357 5356 5355 5353 5351 5349 5347 5345 5343 5340 5337 5334 5330 5327 5323 5319 5314 5310 5306 5302 5298
5343 5344 5345 5347 5348 5349 5350 5351 5352 5352 5353 5354 5354 5354 5354 5354 5354 5353 5352 5352 5351 5350 5349 5348 5347 5345 5343 5341 5339 5337 5335 5333 5330 5327 5323 5320 5316 5312 5308 5304 5300 5296 5292